Weather History for Cairns, QU

Change the Weather History Date:

Saturday, January 11, 2014

  Actual Average Record
Temperature  
Mean Temperature 82 °F -  
Max Temperature 89 °F 89 °F 89 °F (2002)
Min Temperature 74 °F 74 °F 73 °F (2005)
Cooling Degree Days 16    
Growing Degree Days 32 (Base 50)    
Moisture  
Dew Point 73 °F    
Average Humidity 83    
Maximum Humidity 94    
Minimum Humidity 50    
Precipitation  
Precipitation 1.93 in 0.53 in - ()
Sea Level Pressure  
Sea Level Pressure 29.83 in    
Wind  
Wind Speed 11 mph ()    
Max Wind Speed 18 mph    
Max Gust Speed -    
Visibility 5.2 miles    
Events Rain    
Averages and records for this station are not official NWS values.
T = Trace of Precipitation, MM = Missing Value Source: Averaged Metar Reports

Daily Weather History Graph

Daily Weather History Graph

Search for Another Location

Airport:

Trip Planner

Search our weather history database for the weather conditions in past years. The results will help you decide how hot, cold, wet, or windy it might be!

Date:

Astronomy

Jan. 11, 2014 Rise Set
Actual Time 5:52 AM AEST 6:56 PM AEST
Civil Twilight 5:29 AM AEST 7:20 PM AEST
Nautical Twilight 5:01 AM AEST 7:48 PM AEST
Astronomical Twilight 4:32 AM AEST 8:16 PM AEST
Moon 2:54 PM AEST (1/11) 1:45 AM AEST (1/11)
Length of Visible Light 13h 50m
Length of Day
13h 03m
Waxing Gibbous, 78% of the Moon is Illuminated
Jan 11
Waxing Gibbous
Jan 16
Full
Jan 24
Last Quarter
Jan 31
New
Feb 7
First Quarter

Hourly Weather History & Observations

Time (AEST) Temp. Heat Index Dew Point Humidity Pressure Visibility Wind Dir Wind Speed Gust Speed Precip Events Conditions
12:00 AM 77 °F - 74 °F 90% 29.87 in - South 11.5 mph - -   Overcast
12:00 AM 77.0 °F - 75.2 °F 94% 29.86 in 6.2 mi South 11.5 mph - N/A   Mostly Cloudy
12:30 AM 77.0 °F - 73.4 °F 89% 29.83 in 6.2 mi South 9.2 mph - N/A   Mostly Cloudy
1:00 AM 78 °F - 73 °F 79% 29.84 in - South 10.4 mph - -  
1:00 AM 77.0 °F - 73.4 °F 89% 29.83 in 6.2 mi South 10.4 mph - N/A   Mostly Cloudy
1:30 AM 77.0 °F - 73.4 °F 89% 29.83 in 6.2 mi SSE 8.1 mph - N/A   Mostly Cloudy
2:00 AM 78.8 °F - 73.4 °F 83% 29.80 in 6.2 mi South 8.1 mph - N/A   Scattered Clouds
2:15 AM 77.0 °F - 75.2 °F 94% 29.80 in 3.7 mi ESE 11.5 mph - N/A Rain Light Rain Showers
2:30 AM 77.0 °F - 75.2 °F 94% 29.80 in 5.0 mi South 12.7 mph - N/A Rain Light Rain Showers
3:00 AM 76 °F - 73 °F 88% 29.81 in - South 13.8 mph - -   Overcast
3:00 AM 77.0 °F - 73.4 °F 89% 29.80 in 3.1 mi South 13.8 mph - N/A Rain Light Rain Showers
3:30 AM 77.0 °F - 73.4 °F 89% 29.80 in 3.7 mi South 10.4 mph - N/A Rain Light Rain Showers
4:00 AM 76 °F - 73 °F 88% 29.81 in - South 12.7 mph - -  
4:00 AM 77.0 °F - 73.4 °F 89% 29.80 in 5.6 mi South 12.7 mph - N/A Rain Light Rain Showers
4:30 AM 75.2 °F - 73.4 °F 94% 29.80 in 6.2 mi South 16.1 mph - N/A Rain Light Rain Showers
5:00 AM 75.2 °F - 73.4 °F 94% 29.80 in 3.7 mi South 13.8 mph - N/A Rain Light Rain Showers
5:20 AM 75.2 °F - 73.4 °F 94% 29.80 in 5.0 mi South 16.1 mph - N/A Rain Light Rain Showers
5:30 AM 75.2 °F - 73.4 °F 94% 29.80 in 5.0 mi South 15.0 mph - N/A Rain Light Rain Showers
5:37 AM 75.2 °F - 73.4 °F 94% 29.83 in 3.7 mi South 16.1 mph - N/A Rain Light Rain Showers
6:00 AM 76 °F - 74 °F 91% 29.83 in - South 13.8 mph - -   Overcast
6:00 AM 75.2 °F - 73.4 °F 94% 29.83 in 3.7 mi South 13.8 mph - N/A Rain Light Rain Showers
6:30 AM 77.0 °F - 73.4 °F 89% 29.83 in 5.0 mi SSW 10.4 mph - N/A Rain Light Rain Showers
7:00 AM 76 °F - 74 °F 91% 29.86 in - South 12.7 mph - -  
7:00 AM 77.0 °F - 73.4 °F 89% 29.83 in 5.0 mi South 12.7 mph - N/A Rain Light Rain Showers
7:30 AM 77.0 °F - 73.4 °F 89% 29.86 in 5.0 mi South 13.8 mph - N/A Rain Light Rain Showers
8:00 AM 77.0 °F - 73.4 °F 89% 29.86 in 5.6 mi South 15.0 mph - N/A   Mostly Cloudy
8:30 AM 78.8 °F - 73.4 °F 83% 29.86 in 5.6 mi South 15.0 mph - N/A Rain Light Rain Showers
9:00 AM 80 °F - 74 °F 76% 29.88 in 6 mi South 12.7 mph - -   Mostly Cloudy
9:00 AM 80.6 °F 85.4 °F 73.4 °F 79% 29.86 in 5.6 mi South 12.7 mph - N/A Rain Light Rain Showers
9:30 AM 82.4 °F 88.2 °F 73.4 °F 74% 29.86 in 6.2 mi South 11.5 mph - N/A Rain Light Rain Showers
10:00 AM 84 °F - 75 °F 68% 29.88 in - SSE 10.4 mph - -  
10:00 AM 84.2 °F 92.3 °F 75.2 °F 74% 29.86 in 6.2 mi SSE 10.4 mph - N/A   Mostly Cloudy
10:30 AM 84.2 °F 92.3 °F 75.2 °F 74% 29.86 in 6.2 mi SSE 11.5 mph - N/A   Mostly Cloudy
11:00 AM 86.0 °F 91.8 °F 71.6 °F 62% 29.86 in 6.2 mi ESE 18.4 mph - N/A   Mostly Cloudy
11:30 AM 89.6 °F 96.2 °F 71.6 °F 55% 29.86 in 6.2 mi ESE 16.1 mph - N/A Rain Light Rain Showers
12:00 PM 88 °F - 72 °F 50% 29.85 in - ESE 17.3 mph - -  
12:00 PM 87.8 °F 93.8 °F 71.6 °F 58% 29.83 in 6.2 mi ESE 17.3 mph - N/A   Mostly Cloudy
12:30 PM 82.4 °F 88.2 °F 73.4 °F 74% 29.83 in 6.2 mi South 17.3 mph - N/A Rain Light Rain Showers
1:00 PM 82 °F - 70 °F 58% 29.85 in - South 17.3 mph - -  
1:00 PM 82.4 °F 86.3 °F 69.8 °F 66% 29.83 in 6.2 mi South 17.3 mph - N/A Rain Light Rain Showers
1:30 PM 80.6 °F 84.6 °F 71.6 °F 74% 29.83 in 5.0 mi South 12.7 mph - N/A Rain Light Rain Showers
2:00 PM 77.0 °F - 75.2 °F 94% 29.83 in 4.3 mi SSE 12.7 mph - N/A Rain Light Rain Showers
2:12 PM 77.0 °F - 73.4 °F 89% 29.83 in 3.7 mi SSE 12.7 mph - N/A Rain Light Rain Showers
2:30 PM 77.0 °F - 73.4 °F 89% 29.80 in 3.7 mi South 12.7 mph - N/A Rain Light Rain Showers
3:00 PM 76 °F - 72 °F 85% 29.81 in 5 mi SSW 12.7 mph - - Rain Light Rain Showers
3:00 PM 77.0 °F - 71.6 °F 83% 29.80 in 5.0 mi SSW 12.7 mph - N/A Rain Light Rain Showers
3:30 PM 78.8 °F - 73.4 °F 83% 29.80 in 5.0 mi South 8.1 mph - N/A Rain Light Rain Showers
4:00 PM 80 °F - 74 °F 77% 29.80 in - South 8.1 mph - -  
4:00 PM 80.6 °F 85.4 °F 73.4 °F 79% 29.77 in 5.6 mi South 8.1 mph - N/A Rain Light Rain Showers
4:30 PM 80.6 °F 86.2 °F 75.2 °F 84% 29.77 in 6.2 mi South 8.1 mph - N/A Rain Light Rain Showers
5:00 PM 80.6 °F 85.4 °F 73.4 °F 79% 29.77 in 6.2 mi South 9.2 mph - N/A Rain Light Rain Showers
5:30 PM 80.6 °F 86.2 °F 75.2 °F 84% 29.80 in 6.2 mi South 8.1 mph - N/A Rain Light Rain Showers
6:00 PM 81 °F - 74 °F 74% 29.80 in - South 6.9 mph - -  
6:00 PM 80.6 °F 85.4 °F 73.4 °F 79% 29.80 in 6.2 mi South 6.9 mph - N/A   Mostly Cloudy
6:30 PM 78.8 °F - 73.4 °F 83% 29.80 in 4.3 mi South 11.5 mph - N/A Rain Light Rain Showers
6:42 PM 77.0 °F - 75.2 °F 94% 29.80 in 3.1 mi South 13.8 mph - N/A Rain Light Rain Showers
7:00 PM 77 °F - 73 °F 85% 29.83 in - South 11.5 mph - -  
7:00 PM 77.0 °F - 73.4 °F 89% 29.83 in 5.0 mi South 11.5 mph - N/A Rain Light Rain Showers
7:30 PM 78.8 °F - 71.6 °F 78% 29.83 in 6.2 mi South 6.9 mph - N/A Rain Light Rain Showers
8:00 PM 78.8 °F - 73.4 °F 83% 29.83 in 5.0 mi South 11.5 mph - N/A Rain Light Rain Showers
8:30 PM 77.0 °F - 73.4 °F 89% 29.83 in 6.2 mi South 11.5 mph - N/A   Scattered Clouds
9:00 PM 78 °F - 71 °F 75% 29.85 in - South 13.8 mph - -  
9:00 PM 78.8 °F - 71.6 °F 78% 29.83 in 6.2 mi South 13.8 mph - N/A   Mostly Cloudy
9:30 PM 75.2 °F - 73.4 °F 94% 29.86 in 3.1 mi SE 15.0 mph - N/A Rain Rain Showers
10:00 PM 75 °F - 73 °F 90% 29.88 in - South 8.1 mph - -  
10:00 PM 75.2 °F - 73.4 °F 94% 29.86 in 3.1 mi South 8.1 mph - N/A Rain Light Rain Showers
10:30 PM 77.0 °F - 71.6 °F 83% 29.86 in 6.2 mi SSW 8.1 mph - N/A   Mostly Cloudy
11:00 PM 75.2 °F - 71.6 °F 89% 29.86 in 5.0 mi South 15.0 mph - N/A Rain Light Rain Showers
11:30 PM 75.2 °F - 73.4 °F 94% 29.86 in 3.1 mi SE 6.9 mph - N/A Rain Rain Showers